OneWeb SL0515

operational
NORAD ID: 54133 Int'l Des: 2022-138 Owner: ONEWEBN Country: UK Constellation: oneweb
LEOCIRCULARPOLARONEWEB_TYPE

About OneWeb SL0515

Description loading...

Live Position

Loading 3D Globe...

Upcoming Passes

Altitude History

Altitude vs Time

uPlot chart will show altitude changes over time

Two-Line Element Set

1 54133U 22138W 25306.45455219 .00000081 00000-0 16801-3 0 9991
2 54133 87.9194 319.6398 0002447 73.8687 286.2716 13.20771986149371
Epoch: Nov 2, 2025 • Age: 8 hours

Current Status

Altitude 1206.6 km
Velocity 7.25 km/s
Sub-Earth Point -59.45°S, 169.92°E
Launch Date Oct 22, 2022
Age 3 years
Type internet

Technical Details

Classification Payload
Mass 148.00 kg
Dry Mass 140.00 kg
Total Mass 148.00 kg
Length 1.30 m
Diameter 1.00 m
Span 5.00 m
Shape Trapezoid+2 pan
Manufacturer ONEWUS
Bus Type ARROW
Phase Status In Orbit
Owner/State ONEWEBN/UK

Large Constellations

Loading constellations...